Time,TemperatureF,DewpointF,PressureIn,WindDirection,WindDirectionDegrees,WindSpeedMPH,WindSpeedGustMPH,Humidity,HourlyPrecipIn,Conditions,Clouds,dailyrainin,SolarRadiationWatts/m^2,SoftwareType,DateUTC
2013-01-26 00:00:00,41.1,24.8,30.05,South,180,5.0,7.0,52,0.00,,---,0.00,0.00,VWS V14.01,2013-01-26 06:00:00,
2013-01-26 00:05:00,40.9,24.6,30.05,North,0,4.0,5.0,52,0.00,,---,0.00,0.00,VWS V14.01,2013-01-26 06:05:00,
2013-01-26 00:10:00,40.9,24.6,30.05,SSE,158,4.0,6.0,52,0.00,,---,0.00,0.00,VWS V14.01,2013-01-26 06:10:00,
2013-01-26 00:15:00,41.1,24.8,30.04,North,0,5.0,7.0,52,0.00,,---,0.00,0.00,VWS V14.01,2013-01-26 06:15:00,
2013-01-26 00:20:00,41.1,24.8,30.04,SSE,158,6.0,8.0,52,0.00,,---,0.00,0.00,VWS V14.01,2013-01-26 06:20:00,
2013-01-26 00:25:00,40.9,24.6,30.04,South,180,6.0,8.0,52,0.00,,---,0.00,0.00,VWS V14.01,2013-01-26 06:25:00,
2013-01-26 00:30:00,40.9,24.6,30.04,SSE,158,4.0,7.0,52,0.00,,---,0.00,0.00,VWS V14.01,2013-01-26 06:30:00,
2013-01-26 00:35:00,41.3,25.0,30.04,North,0,5.0,7.0,52,0.00,,---,0.00,0.00,VWS V14.01,2013-01-26 06:35:00,
2013-01-26 00:40:00,41.6,24.4,30.04,North,0,5.0,7.0,50,0.00,,---,0.00,0.00,VWS V14.01,2013-01-26 06:40:00,
2013-01-26 00:45:00,41.8,24.5,30.03,North,0,5.0,6.0,50,0.00,,---,0.00,0.00,VWS V14.01,2013-01-26 06:45:00,
2013-01-26 00:50:00,41.5,24.7,30.03,SSE,158,4.0,6.0,51,0.00,,---,0.00,0.00,VWS V14.01,2013-01-26 06:50:00,
2013-01-26 00:55:00,41.1,24.8,30.03,North,0,5.0,7.0,52,0.00,,---,0.00,0.00,VWS V14.01,2013-01-26 06:55:00,
2013-01-26 01:00:00,40.9,24.6,30.03,North,0,4.0,6.0,52,0.00,,---,0.00,0.00,VWS V14.01,2013-01-26 07:00:00,
2013-01-26 01:05:00,40.8,24.5,30.03,North,0,4.0,6.0,52,0.00,,---,0.00,0.00,VWS V14.01,2013-01-26 07:05:00,
2013-01-26 01:10:00,40.8,24.5,30.03,North,0,4.0,6.0,52,0.00,,---,0.00,0.00,VWS V14.01,2013-01-26 07:10:00,
2013-01-26 01:15:00,40.6,24.8,30.02,SSE,158,5.0,8.0,53,0.00,,---,0.00,0.00,VWS V14.01,2013-01-26 07:15:00,
2013-01-26 01:20:00,40.2,24.9,30.02,SSE,158,6.0,7.0,54,0.00,,---,0.00,0.00,VWS V14.01,2013-01-26 07:20:00,
2013-01-26 01:25:00,40.1,24.8,30.02,SSE,158,5.0,7.0,54,0.00,,---,0.00,0.00,VWS V14.01,2013-01-26 07:25:00,
2013-01-26 01:30:00,40.1,24.8,30.03,SSE,158,5.0,7.0,54,0.00,,---,0.00,0.00,VWS V14.01,2013-01-26 07:30:00,
2013-01-26 01:35:00,40.2,24.9,30.03,SSE,158,5.0,7.0,54,0.00,,---,0.00,0.00,VWS V14.01,2013-01-26 07:35:00,
2013-01-26 01:40:00,40.2,24.9,30.03,SSE,158,5.0,8.0,54,0.00,,---,0.00,0.00,VWS V14.01,2013-01-26 07:40:00,
2013-01-26 01:45:00,40.3,25.0,30.03,North,0,4.0,7.0,54,0.00,,---,0.00,0.00,VWS V14.01,2013-01-26 07:45:00,
2013-01-26 01:50:00,40.2,24.9,30.03,SSE,158,4.0,6.0,54,0.00,,---,0.00,0.00,VWS V14.01,2013-01-26 07:50:00,
2013-01-26 01:55:00,40.2,24.9,30.03,North,0,5.0,7.0,54,0.00,,---,0.00,0.00,VWS V14.01,2013-01-26 07:55:00,
2013-01-26 02:00:00,40.1,24.8,30.04,SSE,158,3.0,6.0,54,0.00,,---,0.00,0.00,VWS V14.01,2013-01-26 08:00:00,
2013-01-26 02:05:00,40.1,25.2,30.04,North,0,3.0,5.0,55,0.00,,---,0.00,0.00,VWS V14.01,2013-01-26 08:05:00,
2013-01-26 02:10:00,39.9,25.1,30.04,SSE,158,4.0,6.0,55,0.00,,---,0.00,0.00,VWS V14.01,2013-01-26 08:10:00,
2013-01-26 02:15:00,39.9,25.1,30.03,North,0,3.0,5.0,55,0.00,,---,0.00,0.00,VWS V14.01,2013-01-26 08:15:00,
2013-01-26 02:20:00,39.8,25.0,30.03,North,0,3.0,6.0,55,0.00,,---,0.00,0.00,VWS V14.01,2013-01-26 08:20:00,
2013-01-26 02:25:00,39.8,25.0,30.03,SSE,158,4.0,6.0,55,0.00,,---,0.00,0.00,VWS V14.01,2013-01-26 08:25:00,
2013-01-26 02:30:00,39.6,25.2,30.02,North,0,4.0,6.0,56,0.00,,---,0.00,0.00,VWS V14.01,2013-01-26 08:30:00,
2013-01-26 02:35:00,39.5,25.1,30.02,SSE,158,4.0,6.0,56,0.00,,---,0.00,0.00,VWS V14.01,2013-01-26 08:35:00,
2013-01-26 02:40:00,39.3,24.9,30.02,SSE,158,5.0,7.0,56,0.00,,---,0.00,0.00,VWS V14.01,2013-01-26 08:40:00,
2013-01-26 02:45:00,39.5,25.5,30.02,SSE,158,5.0,7.0,57,0.00,,---,0.00,0.00,VWS V14.01,2013-01-26 08:45:00,
2013-01-26 02:50:00,39.6,25.2,30.02,North,0,5.0,8.0,56,0.00,,---,0.00,0.00,VWS V14.01,2013-01-26 08:50:00,
2013-01-26 02:55:00,39.8,25.8,30.02,SSE,158,2.0,5.0,57,0.00,,---,0.00,0.00,VWS V14.01,2013-01-26 08:55:00,
2013-01-26 03:00:00,39.6,25.6,30.02,SSE,158,2.0,5.0,57,0.00,,---,0.00,0.00,VWS V14.01,2013-01-26 09:00:00,
2013-01-26 03:05:00,39.5,25.5,30.02,North,0,2.0,5.0,57,0.00,,---,0.00,0.00,VWS V14.01,2013-01-26 09:05:00,
2013-01-26 03:10:00,39.3,25.4,30.02,SSE,158,3.0,6.0,57,0.00,,---,0.00,0.00,VWS V14.01,2013-01-26 09:10:00,
2013-01-26 03:15:00,39.2,25.3,30.01,North,0,3.0,5.0,57,0.00,,---,0.00,0.00,VWS V14.01,2013-01-26 09:15:00,
2013-01-26 03:20:00,39.3,25.4,30.01,North,0,2.0,3.0,57,0.00,,---,0.00,0.00,VWS V14.01,2013-01-26 09:20:00,
2013-01-26 03:25:00,39.5,25.1,30.01,North,0,3.0,5.0,56,0.00,,---,0.00,0.00,VWS V14.01,2013-01-26 09:25:00,
2013-01-26 03:30:00,39.5,25.1,30.00,NW,315,3.0,5.0,56,0.00,,---,0.00,0.00,VWS V14.01,2013-01-26 09:30:00,
2013-01-26 03:35:00,39.3,25.4,30.00,NNW,338,2.0,4.0,57,0.00,,---,0.00,0.00,VWS V14.01,2013-01-26 09:35:00,
2013-01-26 03:40:00,39.2,25.3,30.00,North,0,3.0,4.0,57,0.00,,---,0.00,0.00,VWS V14.01,2013-01-26 09:40:00,
2013-01-26 03:45:00,39.1,25.6,30.00,North,0,4.0,6.0,58,0.00,,---,0.00,0.00,VWS V14.01,2013-01-26 09:45:00,
2013-01-26 03:50:00,38.9,25.4,30.00,North,0,4.0,6.0,58,0.00,,---,0.00,0.00,VWS V14.01,2013-01-26 09:50:00,
2013-01-26 03:55:00,38.8,25.3,30.00,North,0,3.0,5.0,58,0.00,,---,0.00,0.00,VWS V14.01,2013-01-26 09:55:00,
2013-01-26 04:00:00,38.8,25.3,30.00,North,0,2.0,4.0,58,0.00,,---,0.00,0.00,VWS V14.01,2013-01-26 10:00:00,
2013-01-26 04:05:00,38.9,25.4,30.00,North,0,2.0,4.0,58,0.00,,---,0.00,0.00,VWS V14.01,2013-01-26 10:05:00,
2013-01-26 04:10:00,38.8,25.3,30.00,North,0,2.0,3.0,58,0.00,,---,0.00,0.00,VWS V14.01,2013-01-26 10:10:00,
2013-01-26 04:15:00,38.8,25.3,30.00,North,0,2.0,3.0,58,0.00,,---,0.00,0.00,VWS V14.01,2013-01-26 10:15:00,
2013-01-26 04:20:00,38.8,25.3,30.00,North,0,2.0,5.0,58,0.00,,---,0.00,0.00,VWS V14.01,2013-01-26 10:20:00,
2013-01-26 04:25:00,38.8,25.3,30.00,North,0,2.0,5.0,58,0.00,,---,0.00,0.00,VWS V14.01,2013-01-26 10:25:00,
2013-01-26 04:30:00,38.9,25.4,30.00,North,0,2.0,3.0,58,0.00,,---,0.00,0.00,VWS V14.01,2013-01-26 10:30:00,
2013-01-26 04:35:00,38.9,25.4,30.00,North,0,3.0,4.0,58,0.00,,---,0.00,0.00,VWS V14.01,2013-01-26 10:35:00,
2013-01-26 04:40:00,38.9,25.4,30.00,SSE,158,4.0,6.0,58,0.00,,---,0.00,0.00,VWS V14.01,2013-01-26 10:40:00,
2013-01-26 04:45:00,38.9,25.8,30.00,North,0,5.0,6.0,59,0.00,,---,0.00,0.00,VWS V14.01,2013-01-26 10:45:00,
2013-01-26 04:50:00,38.8,25.7,30.00,North,0,5.0,7.0,59,0.00,,---,0.00,0.00,VWS V14.01,2013-01-26 10:50:00,
2013-01-26 04:55:00,38.6,25.5,30.00,SSE,158,3.0,5.0,59,0.00,,---,0.00,0.00,VWS V14.01,2013-01-26 10:55:00,
2013-01-26 05:00:00,38.5,25.8,30.00,SSE,158,2.0,5.0,60,0.00,,---,0.00,0.00,VWS V14.01,2013-01-26 11:00:00,
2013-01-26 05:05:00,38.3,25.6,30.00,North,0,3.0,5.0,60,0.00,,---,0.00,0.00,VWS V14.01,2013-01-26 11:05:00,
2013-01-26 05:10:00,38.3,25.6,30.00,SSE,158,5.0,6.0,60,0.00,,---,0.00,0.00,VWS V14.01,2013-01-26 11:10:00,
2013-01-26 05:15:00,38.3,25.6,30.00,SSE,158,4.0,6.0,60,0.00,,---,0.00,0.00,VWS V14.01,2013-01-26 11:15:00,
2013-01-26 05:20:00,38.5,25.8,30.00,SSE,158,3.0,5.0,60,0.00,,---,0.00,0.00,VWS V14.01,2013-01-26 11:20:00,
2013-01-26 05:25:00,38.8,25.7,30.00,North,0,3.0,6.0,59,0.00,,---,0.00,0.00,VWS V14.01,2013-01-26 11:25:00,
2013-01-26 05:30:00,38.9,25.4,30.00,SE,135,4.0,7.0,58,0.00,,---,0.00,0.00,VWS V14.01,2013-01-26 11:30:00,
2013-01-26 05:35:00,38.8,25.3,30.00,SSE,158,6.0,8.0,58,0.00,,---,0.00,0.00,VWS V14.01,2013-01-26 11:35:00,
2013-01-26 05:40:00,38.5,25.4,30.00,North,0,6.0,8.0,59,0.00,,---,0.00,0.00,VWS V14.01,2013-01-26 11:40:00,
2013-01-26 05:45:00,38.2,25.5,30.00,North,0,7.0,10.0,60,0.00,,---,0.00,0.00,VWS V14.01,2013-01-26 11:45:00,
2013-01-26 05:50:00,37.8,25.6,30.00,SSE,158,6.0,7.0,61,0.00,,---,0.00,0.00,VWS V14.01,2013-01-26 11:50:00,
2013-01-26 05:55:00,37.6,25.4,30.00,NNW,338,5.0,8.0,61,0.00,,---,0.00,0.00,VWS V14.01,2013-01-26 11:55:00,
2013-01-26 06:00:00,37.3,25.1,30.00,North,0,5.0,8.0,61,0.00,,---,0.00,0.00,VWS V14.01,2013-01-26 12:00:00,
2013-01-26 06:05:00,37.2,25.4,30.00,South,180,5.0,7.0,62,0.00,,---,0.00,0.00,VWS V14.01,2013-01-26 12:05:00,
2013-01-26 06:10:00,36.9,25.1,30.00,North,0,6.0,10.0,62,0.00,,---,0.00,0.00,VWS V14.01,2013-01-26 12:10:00,
2013-01-26 06:15:00,36.6,24.8,30.00,North,0,5.0,8.0,62,0.00,,---,0.00,0.00,VWS V14.01,2013-01-26 12:15:00,
2013-01-26 06:20:00,36.2,24.8,30.00,North,0,5.0,7.0,63,0.00,,---,0.00,0.00,VWS V14.01,2013-01-26 12:20:00,
2013-01-26 06:25:00,35.8,24.8,30.00,North,0,7.0,8.0,64,0.00,,---,0.00,0.00,VWS V14.01,2013-01-26 12:25:00,
2013-01-26 06:30:00,35.2,24.6,30.01,North,0,7.0,8.0,65,0.00,,---,0.00,0.00,VWS V14.01,2013-01-26 12:30:00,
2013-01-26 06:35:00,34.7,24.5,30.01,North,0,4.0,7.0,66,0.00,,---,0.00,0.00,VWS V14.01,2013-01-26 12:35:00,
2013-01-26 06:40:00,34.6,24.8,30.01,North,0,3.0,6.0,67,0.00,,---,0.00,0.00,VWS V14.01,2013-01-26 12:40:00,
2013-01-26 06:45:00,34.7,24.5,30.01,North,0,3.0,5.0,66,0.00,,---,0.00,0.00,VWS V14.01,2013-01-26 12:45:00,
2013-01-26 06:50:00,34.6,24.4,30.01,North,0,3.0,6.0,66,0.00,,---,0.00,0.00,VWS V14.01,2013-01-26 12:50:00,
2013-01-26 06:55:00,34.7,24.9,30.01,North,0,4.0,7.0,67,0.00,,---,0.00,0.00,VWS V14.01,2013-01-26 12:55:00,
2013-01-26 07:00:00,35.2,25.0,30.01,North,0,6.0,8.0,66,0.00,,---,0.00,0.00,VWS V14.01,2013-01-26 13:00:00,
2013-01-26 07:05:00,35.5,24.9,30.01,North,0,5.0,7.0,65,0.00,,---,0.00,0.00,VWS V14.01,2013-01-26 13:05:00,
2013-01-26 07:10:00,35.6,25.0,30.01,North,0,5.0,7.0,65,0.00,,---,0.00,0.00,VWS V14.01,2013-01-26 13:10:00,
2013-01-26 07:15:00,35.6,25.0,30.01,North,0,5.0,8.0,65,0.00,,---,0.00,0.00,VWS V14.01,2013-01-26 13:15:00,
2013-01-26 07:20:00,35.6,25.0,30.01,North,0,6.0,7.0,65,0.00,,---,0.00,0.00,VWS V14.01,2013-01-26 13:20:00,
2013-01-26 07:25:00,35.8,25.2,30.01,SE,135,6.0,8.0,65,0.00,,---,0.00,0.00,VWS V14.01,2013-01-26 13:25:00,
2013-01-26 07:30:00,35.9,24.9,30.01,NNW,338,7.0,11.0,64,0.00,,---,0.00,0.00,VWS V14.01,2013-01-26 13:30:00,
2013-01-26 07:35:00,35.5,24.5,30.01,North,0,9.0,11.0,64,0.00,,---,0.00,0.00,VWS V14.01,2013-01-26 13:35:00,
2013-01-26 07:40:00,34.7,24.1,30.01,NW,315,11.0,12.0,65,0.00,,---,0.00,0.00,VWS V14.01,2013-01-26 13:40:00,
2013-01-26 07:45:00,34.3,24.1,30.02,North,0,11.0,12.0,66,0.00,,---,0.00,0.00,VWS V14.01,2013-01-26 13:45:00,
2013-01-26 07:50:00,33.8,24.4,30.02,North,0,10.0,11.0,68,0.00,,---,0.00,0.00,VWS V14.01,2013-01-26 13:50:00,
2013-01-26 07:55:00,33.8,24.4,30.02,North,0,7.0,11.0,68,0.00,,---,0.00,5.00,VWS V14.01,2013-01-26 13:55:00,
2013-01-26 08:00:00,34.0,24.6,30.02,North,0,7.0,10.0,68,0.00,,---,0.00,11.00,VWS V14.01,2013-01-26 14:00:00,
2013-01-26 08:05:00,34.6,24.8,30.02,NW,315,7.0,10.0,67,0.00,,---,0.00,14.00,VWS V14.01,2013-01-26 14:05:00,
2013-01-26 08:10:00,35.3,25.1,30.02,SSE,158,7.0,11.0,66,0.00,,---,0.00,16.00,VWS V14.01,2013-01-26 14:10:00,
2013-01-26 08:15:00,35.8,25.2,30.02,SSE,158,7.0,11.0,65,0.00,,---,0.00,18.00,VWS V14.01,2013-01-26 14:15:00,
2013-01-26 08:20:00,36.3,25.3,30.02,SSE,158,8.0,14.0,64,0.00,,---,0.00,43.00,VWS V14.01,2013-01-26 14:20:00,
2013-01-26 08:25:00,36.6,25.2,30.02,SSE,158,7.0,13.0,63,0.00,,---,0.00,68.00,VWS V14.01,2013-01-26 14:25:00,
2013-01-26 08:30:00,36.8,25.4,30.02,SSE,158,7.0,11.0,63,0.00,,---,0.00,74.00,VWS V14.01,2013-01-26 14:30:00,
2013-01-26 08:35:00,37.0,25.2,30.02,SSE,158,8.0,16.0,62,0.00,,---,0.00,100.00,VWS V14.01,2013-01-26 14:35:00,
2013-01-26 08:40:00,37.3,25.1,30.02,SSE,158,8.0,12.0,61,0.00,,---,0.00,108.00,VWS V14.01,2013-01-26 14:40:00,
2013-01-26 08:45:00,37.6,25.4,30.02,SSE,158,7.0,12.0,61,0.00,,---,0.00,126.00,VWS V14.01,2013-01-26 14:45:00,
2013-01-26 08:50:00,37.8,25.2,30.02,SSE,158,8.0,12.0,60,0.00,,---,0.00,136.00,VWS V14.01,2013-01-26 14:50:00,
2013-01-26 08:55:00,37.9,25.3,30.02,SE,135,8.0,12.0,60,0.00,,---,0.00,164.00,VWS V14.01,2013-01-26 14:55:00,
2013-01-26 09:00:00,38.0,25.0,30.03,SSE,158,11.0,17.0,59,0.00,,---,0.00,179.00,VWS V14.01,2013-01-26 15:00:00,
2013-01-26 09:05:00,38.3,25.2,30.03,North,0,11.0,16.0,59,0.00,,---,0.00,186.00,VWS V14.01,2013-01-26 15:05:00,
2013-01-26 09:10:00,38.8,25.3,30.03,North,0,12.0,18.0,58,0.00,,---,0.00,191.00,VWS V14.01,2013-01-26 15:10:00,
2013-01-26 09:15:00,39.1,25.2,30.02,North,0,13.0,18.0,57,0.00,,---,0.00,190.00,VWS V14.01,2013-01-26 15:15:00,
2013-01-26 09:20:00,39.6,25.2,30.02,North,0,12.0,16.0,56,0.00,,---,0.00,215.00,VWS V14.01,2013-01-26 15:20:00,
2013-01-26 09:25:00,40.1,25.2,30.02,North,0,12.0,18.0,55,0.00,,---,0.00,227.00,VWS V14.01,2013-01-26 15:25:00,
2013-01-26 09:30:00,40.8,25.5,30.02,North,0,12.0,17.0,54,0.00,,---,0.00,236.00,VWS V14.01,2013-01-26 15:30:00,
2013-01-26 09:35:00,41.6,25.8,30.02,North,0,10.0,13.0,53,0.00,,---,0.00,251.00,VWS V14.01,2013-01-26 15:35:00,
2013-01-26 09:40:00,42.2,25.9,30.02,North,0,9.0,17.0,52,0.00,,---,0.00,267.00,VWS V14.01,2013-01-26 15:40:00,
2013-01-26 09:45:00,42.8,25.9,30.02,North,0,8.0,13.0,51,0.00,,---,0.00,286.00,VWS V14.01,2013-01-26 15:45:00,
2013-01-26 09:50:00,43.5,25.6,30.02,North,0,9.0,14.0,49,0.00,,---,0.00,301.00,VWS V14.01,2013-01-26 15:50:00,
2013-01-26 09:55:00,44.5,25.5,30.02,South,180,9.0,13.0,47,0.00,,---,0.00,315.00,VWS V14.01,2013-01-26 15:55:00,
2013-01-26 10:00:00,44.6,25.6,30.02,SW,225,7.0,8.0,47,0.00,,---,0.00,318.00,VWS V14.01,2013-01-26 16:00:00,
2013-01-26 10:05:00,46.0,24.8,30.02,North,0,9.0,13.0,43,0.00,,---,0.00,339.00,VWS V14.01,2013-01-26 16:05:00,
2013-01-26 10:10:00,46.5,24.7,30.02,South,180,9.0,14.0,42,0.00,,---,0.00,338.00,VWS V14.01,2013-01-26 16:10:00,
2013-01-26 10:15:00,47.1,24.6,30.02,SSE,158,10.0,13.0,41,0.00,,---,0.00,351.00,VWS V14.01,2013-01-26 16:15:00,
2013-01-26 10:20:00,47.7,25.2,30.02,South,180,9.0,14.0,41,0.00,,---,0.00,363.00,VWS V14.01,2013-01-26 16:20:00,
2013-01-26 10:25:00,48.3,25.1,30.02,South,180,12.0,19.0,40,0.00,,---,0.00,372.00,VWS V14.01,2013-01-26 16:25:00,
2013-01-26 10:30:00,48.8,25.0,30.01,South,180,9.0,14.0,39,0.00,,---,0.00,385.00,VWS V14.01,2013-01-26 16:30:00,
2013-01-26 10:35:00,49.2,25.3,30.01,North,0,9.0,12.0,39,0.00,,---,0.00,392.00,VWS V14.01,2013-01-26 16:35:00,
2013-01-26 10:40:00,49.5,25.0,30.01,South,180,9.0,13.0,38,0.00,,---,0.00,404.00,VWS V14.01,2013-01-26 16:40:00,
2013-01-26 10:45:00,50.2,25.6,30.01,South,180,16.0,21.0,38,0.00,,---,0.00,420.00,VWS V14.01,2013-01-26 16:45:00,
2013-01-26 10:50:00,50.4,25.8,30.01,South,180,15.0,20.0,38,0.00,,---,0.00,421.00,VWS V14.01,2013-01-26 16:50:00,
2013-01-26 10:55:00,51.1,25.8,30.01,South,180,12.0,24.0,37,0.00,,---,0.00,438.00,VWS V14.01,2013-01-26 16:55:00,
2013-01-26 11:00:00,51.1,25.1,30.01,South,180,20.0,29.0,36,0.00,,---,0.00,442.00,VWS V14.01,2013-01-26 17:00:00,
2013-01-26 11:05:00,51.3,24.6,30.01,SSW,202,19.0,27.0,35,0.00,,---,0.00,450.00,VWS V14.01,2013-01-26 17:05:00,
2013-01-26 11:10:00,51.3,23.9,30.01,SW,225,20.0,27.0,34,0.00,,---,0.00,452.00,VWS V14.01,2013-01-26 17:10:00,
2013-01-26 11:15:00,51.7,23.5,30.00,SSW,202,16.0,22.0,33,0.00,,---,0.00,463.00,VWS V14.01,2013-01-26 17:15:00,
2013-01-26 11:20:00,52.2,23.2,30.00,South,180,16.0,24.0,32,0.00,,---,0.00,467.00,VWS V14.01,2013-01-26 17:20:00,
2013-01-26 11:25:00,52.6,23.6,30.00,South,180,15.0,24.0,32,0.00,,---,0.00,476.00,VWS V14.01,2013-01-26 17:25:00,
2013-01-26 11:30:00,52.9,23.9,29.99,South,180,15.0,24.0,32,0.00,,---,0.00,479.00,VWS V14.01,2013-01-26 17:30:00,
2013-01-26 11:35:00,53.2,23.4,29.99,SW,225,17.0,30.0,31,0.00,,---,0.00,485.00,VWS V14.01,2013-01-26 17:35:00,
2013-01-26 11:40:00,53.3,22.7,29.99,SSW,202,18.0,26.0,30,0.00,,---,0.00,492.00,VWS V14.01,2013-01-26 17:40:00,
2013-01-26 11:45:00,53.3,22.7,29.98,SSW,202,17.0,29.0,30,0.00,,---,0.00,497.00,VWS V14.01,2013-01-26 17:45:00,
2013-01-26 11:50:00,53.3,23.5,29.98,South,180,18.0,27.0,31,0.00,,---,0.00,52.00,VWS V14.01,2013-01-26 17:50:00,
2013-01-26 11:55:00,53.6,23.7,29.98,SW,225,15.0,26.0,31,0.00,,---,0.00,50.00,VWS V14.01,2013-01-26 17:55:00,
2013-01-26 12:00:00,53.8,23.9,29.97,SSW,202,14.0,21.0,31,0.00,,---,0.00,56.00,VWS V14.01,2013-01-26 18:00:00,
2013-01-26 12:05:00,54.4,23.6,29.97,SSW,202,15.0,24.0,30,0.00,,---,0.00,62.00,VWS V14.01,2013-01-26 18:05:00,
2013-01-26 12:10:00,54.5,22.9,29.97,North,0,13.0,20.0,29,0.00,,---,0.00,62.00,VWS V14.01,2013-01-26 18:10:00,
2013-01-26 12:15:00,54.8,22.3,29.95,North,0,11.0,17.0,28,0.00,,---,0.00,62.00,VWS V14.01,2013-01-26 18:15:00,
2013-01-26 12:20:00,54.7,22.3,29.95,North,0,13.0,22.0,28,0.00,,---,0.00,62.00,VWS V14.01,2013-01-26 18:20:00,
2013-01-26 12:25:00,54.5,22.1,29.95,South,180,16.0,24.0,28,0.00,,---,0.00,520.00,VWS V14.01,2013-01-26 18:25:00,
2013-01-26 12:30:00,55.1,22.6,29.95,South,180,16.0,25.0,28,0.00,,---,0.00,519.00,VWS V14.01,2013-01-26 18:30:00,
2013-01-26 12:35:00,55.6,22.2,29.95,SSW,202,15.0,20.0,27,0.00,,---,0.00,44.00,VWS V14.01,2013-01-26 18:35:00,
2013-01-26 12:40:00,55.9,22.4,29.95,South,180,16.0,24.0,27,0.00,,---,0.00,51.00,VWS V14.01,2013-01-26 18:40:00,
2013-01-26 12:45:00,56.0,22.5,29.93,South,180,16.0,21.0,27,0.00,,---,0.00,49.00,VWS V14.01,2013-01-26 18:45:00,
2013-01-26 12:50:00,56.3,22.8,29.93,SSW,202,15.0,25.0,27,0.00,,---,0.00,50.00,VWS V14.01,2013-01-26 18:50:00,
2013-01-26 12:55:00,56.2,21.8,29.93,South,180,18.0,26.0,26,0.00,,---,0.00,49.00,VWS V14.01,2013-01-26 18:55:00,
2013-01-26 13:00:00,56.5,22.0,29.92,South,180,17.0,27.0,26,0.00,,---,0.00,58.00,VWS V14.01,2013-01-26 19:00:00,
2013-01-26 13:05:00,56.5,22.0,29.92,SSW,202,21.0,28.0,26,0.00,,---,0.00,58.00,VWS V14.01,2013-01-26 19:05:00,
2013-01-26 13:10:00,56.7,22.2,29.92,North,0,15.0,25.0,26,0.00,,---,0.00,521.00,VWS V14.01,2013-01-26 19:10:00,
2013-01-26 13:15:00,56.9,21.5,29.91,South,180,17.0,28.0,25,0.00,,---,0.00,518.00,VWS V14.01,2013-01-26 19:15:00,
2013-01-26 13:20:00,56.9,20.5,29.91,North,0,16.0,26.0,24,0.00,,---,0.00,519.00,VWS V14.01,2013-01-26 19:20:00,
2013-01-26 13:25:00,57.2,20.8,29.91,South,180,16.0,27.0,24,0.00,,---,0.00,516.00,VWS V14.01,2013-01-26 19:25:00,
2013-01-26 13:30:00,57.2,20.8,29.90,South,180,18.0,28.0,24,0.00,,---,0.00,513.00,VWS V14.01,2013-01-26 19:30:00,
2013-01-26 13:35:00,57.2,19.8,29.90,South,180,20.0,30.0,23,0.00,,---,0.00,500.00,VWS V14.01,2013-01-26 19:35:00,
2013-01-26 13:40:00,57.0,20.6,29.90,SW,225,18.0,28.0,24,0.00,,---,0.00,56.00,VWS V14.01,2013-01-26 19:40:00,
2013-01-26 13:45:00,57.2,20.8,29.89,South,180,14.0,27.0,24,0.00,,---,0.00,49.00,VWS V14.01,2013-01-26 19:45:00,
2013-01-26 13:50:00,57.2,19.8,29.89,WNW,292,23.0,31.0,23,0.00,,---,0.00,52.00,VWS V14.01,2013-01-26 19:50:00,
2013-01-26 13:55:00,57.3,19.8,29.89,SSW,202,21.0,31.0,23,0.00,,---,0.00,493.00,VWS V14.01,2013-01-26 19:55:00,
2013-01-26 14:00:00,57.5,20.0,29.88,North,0,14.0,22.0,23,0.00,,---,0.00,494.00,VWS V14.01,2013-01-26 20:00:00,
2013-01-26 14:05:00,57.3,19.8,29.88,North,0,14.0,24.0,23,0.00,,---,0.00,482.00,VWS V14.01,2013-01-26 20:05:00,
2013-01-26 14:10:00,57.3,19.8,29.88,NW,315,14.0,21.0,23,0.00,,---,0.00,472.00,VWS V14.01,2013-01-26 20:10:00,
2013-01-26 14:15:00,57.8,20.3,29.88,North,0,14.0,19.0,23,0.00,,---,0.00,472.00,VWS V14.01,2013-01-26 20:15:00,
2013-01-26 14:20:00,58.0,19.4,29.88,North,0,12.0,20.0,22,0.00,,---,0.00,458.00,VWS V14.01,2013-01-26 20:20:00,
2013-01-26 14:25:00,58.1,19.5,29.88,South,180,14.0,22.0,22,0.00,,---,0.00,450.00,VWS V14.01,2013-01-26 20:25:00,
2013-01-26 14:30:00,58.3,19.6,29.88,South,180,15.0,25.0,22,0.00,,---,0.00,442.00,VWS V14.01,2013-01-26 20:30:00,
2013-01-26 14:35:00,58.3,19.6,29.88,SSW,202,13.0,21.0,22,0.00,,---,0.00,434.00,VWS V14.01,2013-01-26 20:35:00,
2013-01-26 14:40:00,58.1,19.5,29.88,SSW,202,19.0,26.0,22,0.00,,---,0.00,426.00,VWS V14.01,2013-01-26 20:40:00,
2013-01-26 14:45:00,58.1,18.4,29.87,South,180,14.0,21.0,21,0.00,,---,0.00,425.00,VWS V14.01,2013-01-26 20:45:00,
2013-01-26 14:50:00,58.3,18.6,29.87,South,180,13.0,18.0,21,0.00,,---,0.00,420.00,VWS V14.01,2013-01-26 20:50:00,
2013-01-26 14:55:00,58.6,18.8,29.87,North,0,12.0,21.0,21,0.00,,---,0.00,407.00,VWS V14.01,2013-01-26 20:55:00,
2013-01-26 15:00:00,58.6,18.8,29.86,North,0,13.0,24.0,21,0.00,,---,0.00,389.00,VWS V14.01,2013-01-26 21:00:00,
2013-01-26 15:05:00,58.7,18.9,29.86,North,0,10.0,18.0,21,0.00,,---,0.00,390.00,VWS V14.01,2013-01-26 21:05:00,
2013-01-26 15:10:00,58.9,17.9,29.86,North,0,11.0,17.0,20,0.00,,---,0.00,370.00,VWS V14.01,2013-01-26 21:10:00,
2013-01-26 15:15:00,59.0,18.0,29.86,South,180,14.0,24.0,20,0.00,,---,0.00,342.00,VWS V14.01,2013-01-26 21:15:00,
2013-01-26 15:20:00,59.2,18.2,29.86,North,0,13.0,24.0,20,0.00,,---,0.00,327.00,VWS V14.01,2013-01-26 21:20:00,
2013-01-26 15:25:00,58.7,17.8,29.86,South,180,13.0,21.0,20,0.00,,---,0.00,279.00,VWS V14.01,2013-01-26 21:25:00,
2013-01-26 15:30:00,58.6,18.8,29.86,South,180,16.0,21.0,21,0.00,,---,0.00,292.00,VWS V14.01,2013-01-26 21:30:00,
2013-01-26 15:35:00,58.7,18.9,29.86,South,180,14.0,21.0,21,0.00,,---,0.00,275.00,VWS V14.01,2013-01-26 21:35:00,
2013-01-26 15:40:00,58.4,18.6,29.86,South,180,16.0,24.0,21,0.00,,---,0.00,244.00,VWS V14.01,2013-01-26 21:40:00,
2013-01-26 15:45:00,58.3,19.6,29.86,South,180,14.0,20.0,22,0.00,,---,0.00,267.00,VWS V14.01,2013-01-26 21:45:00,
2013-01-26 15:50:00,58.4,19.7,29.86,South,180,13.0,19.0,22,0.00,,---,0.00,290.00,VWS V14.01,2013-01-26 21:50:00,
2013-01-26 15:55:00,58.4,18.6,29.86,North,0,14.0,22.0,21,0.00,,---,0.00,248.00,VWS V14.01,2013-01-26 21:55:00,
2013-01-26 16:00:00,58.3,19.6,29.86,North,0,14.0,20.0,22,0.00,,---,0.00,234.00,VWS V14.01,2013-01-26 22:00:00,
2013-01-26 16:05:00,58.3,19.6,29.86,South,180,13.0,19.0,22,0.00,,---,0.00,213.00,VWS V14.01,2013-01-26 22:05:00,
2013-01-26 16:10:00,58.1,20.5,29.86,North,0,12.0,22.0,23,0.00,,---,0.00,194.00,VWS V14.01,2013-01-26 22:10:00,
2013-01-26 16:15:00,58.0,20.4,29.86,North,0,12.0,19.0,23,0.00,,---,0.00,183.00,VWS V14.01,2013-01-26 22:15:00,
2013-01-26 16:20:00,58.0,20.4,29.86,SW,225,12.0,18.0,23,0.00,,---,0.00,166.00,VWS V14.01,2013-01-26 22:20:00,
2013-01-26 16:25:00,58.0,20.4,29.86,North,0,10.0,17.0,23,0.00,,---,0.00,172.00,VWS V14.01,2013-01-26 22:25:00,
2013-01-26 16:30:00,57.8,22.2,29.85,South,180,11.0,17.0,25,0.00,,---,0.00,159.00,VWS V14.01,2013-01-26 22:30:00,
2013-01-26 16:35:00,57.6,22.1,29.85,North,0,13.0,18.0,25,0.00,,---,0.00,132.00,VWS V14.01,2013-01-26 22:35:00,
2013-01-26 16:40:00,57.2,21.7,29.85,North,0,15.0,21.0,25,0.00,,---,0.00,113.00,VWS V14.01,2013-01-26 22:40:00,
2013-01-26 16:45:00,56.9,22.4,29.84,North,0,12.0,22.0,26,0.00,,---,0.00,103.00,VWS V14.01,2013-01-26 22:45:00,
2013-01-26 16:50:00,56.5,22.9,29.84,South,180,9.0,17.0,27,0.00,,---,0.00,93.00,VWS V14.01,2013-01-26 22:50:00,
2013-01-26 16:55:00,56.2,23.5,29.84,South,180,11.0,19.0,28,0.00,,---,0.00,82.00,VWS V14.01,2013-01-26 22:55:00,
2013-01-26 17:00:00,55.7,23.1,29.84,North,0,13.0,19.0,28,0.00,,---,0.00,80.00,VWS V14.01,2013-01-26 23:00:00,
2013-01-26 17:05:00,55.4,22.9,29.84,South,180,13.0,21.0,28,0.00,,---,0.00,83.00,VWS V14.01,2013-01-26 23:05:00,
2013-01-26 17:10:00,55.3,23.6,29.84,North,0,13.0,18.0,29,0.00,,---,0.00,68.00,VWS V14.01,2013-01-26 23:10:00,
2013-01-26 17:15:00,55.1,24.2,29.84,North,0,11.0,17.0,30,0.00,,---,0.00,54.00,VWS V14.01,2013-01-26 23:15:00,
2013-01-26 17:20:00,54.8,24.8,29.84,North,0,9.0,14.0,31,0.00,,---,0.00,55.00,VWS V14.01,2013-01-26 23:20:00,
2013-01-26 17:25:00,54.4,25.2,29.84,WNW,292,9.0,12.0,32,0.00,,---,0.00,42.00,VWS V14.01,2013-01-26 23:25:00,
2013-01-26 17:30:00,53.9,25.5,29.84,North,0,8.0,12.0,33,0.00,,---,0.00,25.00,VWS V14.01,2013-01-26 23:30:00,
2013-01-26 17:35:00,53.3,25.0,29.84,North,0,9.0,14.0,33,0.00,,---,0.00,21.00,VWS V14.01,2013-01-26 23:35:00,
2013-01-26 17:40:00,52.8,25.9,29.84,North,0,10.0,12.0,35,0.00,,---,0.00,7.00,VWS V14.01,2013-01-26 23:40:00,
2013-01-26 17:45:00,52.3,26.8,29.84,North,0,9.0,13.0,37,0.00,,---,0.00,6.00,VWS V14.01,2013-01-26 23:45:00,
2013-01-26 17:50:00,51.7,26.9,29.84,North,0,9.0,11.0,38,0.00,,---,0.00,4.00,VWS V14.01,2013-01-26 23:50:00,
2013-01-26 17:55:00,51.3,26.6,29.84,North,0,9.0,12.0,38,0.00,,---,0.00,0.00,VWS V14.01,2013-01-26 23:55:00,
2013-01-26 18:00:00,51.0,27.5,29.85,North,0,8.0,11.0,40,0.00,,---,0.00,0.00,VWS V14.01,2013-01-27 00:00:00,
2013-01-26 18:05:00,50.5,27.7,29.85,South,180,6.0,7.0,41,0.00,,---,0.00,0.00,VWS V14.01,2013-01-27 00:05:00,
2013-01-26 18:10:00,50.4,28.2,29.85,North,0,7.0,8.0,42,0.00,,---,0.00,0.00,VWS V14.01,2013-01-27 00:10:00,
2013-01-26 18:15:00,50.2,28.6,29.85,North,0,6.0,11.0,43,0.00,,---,0.00,0.00,VWS V14.01,2013-01-27 00:15:00,
2013-01-26 18:20:00,50.4,28.8,29.85,North,0,5.0,7.0,43,0.00,,---,0.00,0.00,VWS V14.01,2013-01-27 00:20:00,
2013-01-26 18:25:00,50.7,29.6,29.85,North,0,6.0,8.0,44,0.00,,---,0.00,0.00,VWS V14.01,2013-01-27 00:25:00,
2013-01-26 18:30:00,50.8,30.2,29.85,North,0,6.0,10.0,45,0.00,,---,0.00,0.00,VWS V14.01,2013-01-27 00:30:00,
2013-01-26 18:35:00,51.1,30.5,29.85,North,0,6.0,8.0,45,0.00,,---,0.00,0.00,VWS V14.01,2013-01-27 00:35:00,
2013-01-26 18:40:00,51.3,31.2,29.85,North,0,6.0,7.0,46,0.00,,---,0.00,0.00,VWS V14.01,2013-01-27 00:40:00,
2013-01-26 18:45:00,51.4,31.9,29.85,North,0,5.0,7.0,47,0.00,,---,0.00,0.00,VWS V14.01,2013-01-27 00:45:00,
2013-01-26 18:50:00,51.6,32.6,29.85,North,0,5.0,8.0,48,0.00,,---,0.00,0.00,VWS V14.01,2013-01-27 00:50:00,
2013-01-26 18:55:00,51.6,32.6,29.85,North,0,4.0,7.0,48,0.00,,---,0.00,0.00,VWS V14.01,2013-01-27 00:55:00,
2013-01-26 19:00:00,51.4,32.9,29.84,North,0,5.0,8.0,49,0.00,,---,0.00,0.00,VWS V14.01,2013-01-27 01:00:00,
2013-01-26 19:05:00,51.4,33.4,29.84,North,0,5.0,12.0,50,0.00,,---,0.00,0.00,VWS V14.01,2013-01-27 01:05:00,
2013-01-26 19:10:00,51.3,33.8,29.84,North,0,6.0,8.0,51,0.00,,---,0.00,0.00,VWS V14.01,2013-01-27 01:10:00,
2013-01-26 19:15:00,51.1,34.6,29.83,North,0,6.0,12.0,53,0.00,,---,0.00,0.00,VWS V14.01,2013-01-27 01:15:00,
2013-01-26 19:20:00,51.1,34.6,29.83,North,0,7.0,12.0,53,0.00,,---,0.00,0.00,VWS V14.01,2013-01-27 01:20:00,
2013-01-26 19:25:00,51.1,35.0,29.83,North,0,7.0,9.0,54,0.00,,---,0.00,0.00,VWS V14.01,2013-01-27 01:25:00,
2013-01-26 19:30:00,50.8,34.8,29.83,North,0,7.0,11.0,54,0.00,,---,0.00,0.00,VWS V14.01,2013-01-27 01:30:00,
2013-01-26 19:35:00,50.5,35.0,29.83,South,180,7.0,10.0,55,0.00,,---,0.00,0.00,VWS V14.01,2013-01-27 01:35:00,
2013-01-26 19:40:00,50.4,34.9,29.83,North,0,7.0,12.0,55,0.00,,---,0.00,0.00,VWS V14.01,2013-01-27 01:40:00,
2013-01-26 19:45:00,50.4,34.9,29.83,North,0,6.0,8.0,55,0.00,,---,0.00,0.00,VWS V14.01,2013-01-27 01:45:00,
2013-01-26 19:50:00,50.4,35.3,29.83,North,0,5.0,8.0,56,0.00,,---,0.00,0.00,VWS V14.01,2013-01-27 01:50:00,
2013-01-26 19:55:00,50.2,35.1,29.83,North,0,5.0,11.0,56,0.00,,---,0.00,0.00,VWS V14.01,2013-01-27 01:55:00,
2013-01-26 20:00:00,50.5,35.8,29.83,North,0,8.0,13.0,57,0.00,,---,0.00,0.00,VWS V14.01,2013-01-27 02:00:00,
2013-01-26 20:05:00,50.5,35.8,29.83,North,0,8.0,11.0,57,0.00,,---,0.00,0.00,VWS V14.01,2013-01-27 02:05:00,
2013-01-26 20:10:00,50.5,35.8,29.83,North,0,8.0,13.0,57,0.00,,---,0.00,0.00,VWS V14.01,2013-01-27 02:10:00,
2013-01-26 20:15:00,50.5,35.8,29.82,North,0,7.0,12.0,57,0.00,,---,0.00,0.00,VWS V14.01,2013-01-27 02:15:00,
2013-01-26 20:20:00,50.5,35.8,29.82,NNW,338,10.0,18.0,57,0.00,,---,0.00,0.00,VWS V14.01,2013-01-27 02:20:00,
2013-01-26 20:25:00,50.5,36.3,29.82,North,0,9.0,12.0,58,0.00,,---,0.00,0.00,VWS V14.01,2013-01-27 02:25:00,
2013-01-26 20:30:00,50.4,36.2,29.82,South,180,10.0,19.0,58,0.00,,---,0.00,0.00,VWS V14.01,2013-01-27 02:30:00,
2013-01-26 20:35:00,50.2,36.0,29.82,South,180,10.0,14.0,58,0.00,,---,0.00,0.00,VWS V14.01,2013-01-27 02:35:00,
2013-01-26 20:40:00,50.2,36.0,29.82,North,0,11.0,18.0,58,0.00,,---,0.00,0.00,VWS V14.01,2013-01-27 02:40:00,
2013-01-26 20:45:00,50.1,37.2,29.82,North,0,10.0,17.0,61,0.00,,---,0.00,0.00,VWS V14.01,2013-01-27 02:45:00,
2013-01-26 20:50:00,50.1,37.2,29.82,North,0,9.0,17.0,61,0.00,,---,0.00,0.00,VWS V14.01,2013-01-27 02:50:00,
2013-01-26 20:55:00,50.1,37.2,29.82,North,0,14.0,24.0,61,0.00,,---,0.00,0.00,VWS V14.01,2013-01-27 02:55:00,
2013-01-26 21:00:00,49.9,36.6,29.83,South,180,15.0,24.0,60,0.00,,---,0.00,0.00,VWS V14.01,2013-01-27 03:00:00,
2013-01-26 21:05:00,49.9,36.6,29.83,South,180,16.0,22.0,60,0.00,,---,0.00,0.00,VWS V14.01,2013-01-27 03:05:00,
2013-01-26 21:10:00,49.9,36.6,29.83,North,0,14.0,20.0,60,0.00,,---,0.00,0.00,VWS V14.01,2013-01-27 03:10:00,
2013-01-26 21:15:00,49.8,36.5,29.82,SW,225,15.0,21.0,60,0.00,,---,0.00,0.00,VWS V14.01,2013-01-27 03:15:00,
2013-01-26 21:20:00,49.6,36.3,29.82,WSW,248,12.0,18.0,60,0.00,,---,0.00,0.00,VWS V14.01,2013-01-27 03:20:00,
2013-01-26 21:25:00,49.5,36.2,29.82,NW,315,14.0,19.0,60,0.00,,---,0.00,0.00,VWS V14.01,2013-01-27 03:25:00,
2013-01-26 21:30:00,49.4,36.1,29.81,North,0,12.0,18.0,60,0.00,,---,0.00,0.00,VWS V14.01,2013-01-27 03:30:00,
2013-01-26 21:35:00,49.4,35.7,29.81,NW,315,13.0,18.0,59,0.00,,---,0.00,0.00,VWS V14.01,2013-01-27 03:35:00,
2013-01-26 21:40:00,49.1,36.7,29.81,North,0,11.0,16.0,62,0.00,,---,0.00,0.00,VWS V14.01,2013-01-27 03:40:00,
2013-01-26 21:45:00,48.3,37.5,29.82,North,0,10.0,14.0,66,0.00,,---,0.00,0.00,VWS V14.01,2013-01-27 03:45:00,
2013-01-26 21:50:00,47.9,37.9,29.82,North,0,10.0,16.0,68,0.00,,---,0.00,0.00,VWS V14.01,2013-01-27 03:50:00,
2013-01-26 21:55:00,47.4,37.8,29.82,North,0,13.0,17.0,69,0.00,,---,0.00,0.00,VWS V14.01,2013-01-27 03:55:00,
2013-01-26 22:00:00,46.8,37.5,29.82,South,180,13.0,18.0,70,0.00,,---,0.00,0.00,VWS V14.01,2013-01-27 04:00:00,
2013-01-26 22:05:00,46.4,37.9,29.82,West,270,13.0,18.0,72,0.00,,---,0.00,0.00,VWS V14.01,2013-01-27 04:05:00,
2013-01-26 22:10:00,46.0,37.8,29.82,North,0,12.0,18.0,73,0.00,,---,0.00,0.00,VWS V14.01,2013-01-27 04:10:00,
2013-01-26 22:15:00,45.5,38.0,29.81,North,0,8.0,13.0,75,0.00,,---,0.00,0.00,VWS V14.01,2013-01-27 04:15:00,
2013-01-26 22:20:00,45.4,38.0,29.81,North,0,8.0,13.0,75,0.01,,---,0.01,0.00,VWS V14.01,2013-01-27 04:20:00,
2013-01-26 22:25:00,45.1,38.3,29.81,North,0,9.0,13.0,77,0.01,,---,0.01,0.00,VWS V14.01,2013-01-27 04:25:00,
2013-01-26 22:30:00,44.8,38.4,29.81,SW,225,9.0,12.0,78,0.01,,---,0.01,0.00,VWS V14.01,2013-01-27 04:30:00,
2013-01-26 22:35:00,44.5,38.7,29.81,North,0,7.0,11.0,80,0.01,,---,0.01,0.00,VWS V14.01,2013-01-27 04:35:00,
2013-01-26 22:40:00,44.5,38.7,29.81,North,0,9.0,14.0,80,0.02,,---,0.02,0.00,VWS V14.01,2013-01-27 04:40:00,
2013-01-26 22:45:00,44.5,39.0,29.80,North,0,9.0,16.0,81,0.02,,---,0.02,0.00,VWS V14.01,2013-01-27 04:45:00,
2013-01-26 22:50:00,44.3,38.8,29.80,North,0,7.0,8.0,81,0.02,,---,0.02,0.00,VWS V14.01,2013-01-27 04:50:00,
2013-01-26 22:55:00,44.1,39.0,29.80,North,0,8.0,14.0,82,0.02,,---,0.02,0.00,VWS V14.01,2013-01-27 04:55:00,
2013-01-26 23:00:00,43.9,38.8,29.78,North,0,12.0,17.0,82,0.02,,---,0.02,0.00,VWS V14.01,2013-01-27 05:00:00,
2013-01-26 23:05:00,43.8,38.7,29.78,North,0,9.0,17.0,82,0.02,,---,0.02,0.00,VWS V14.01,2013-01-27 05:05:00,
2013-01-26 23:10:00,43.8,38.7,29.78,North,0,9.0,16.0,82,0.02,,---,0.02,0.00,VWS V14.01,2013-01-27 05:10:00,
2013-01-26 23:15:00,43.6,38.5,29.78,North,0,7.0,11.0,82,0.02,,---,0.02,0.00,VWS V14.01,2013-01-27 05:15:00,
2013-01-26 23:20:00,43.5,38.4,29.78,North,0,7.0,11.0,82,0.02,,---,0.02,0.00,VWS V14.01,2013-01-27 05:20:00,
2013-01-26 23:25:00,43.3,38.5,29.78,SW,225,5.0,10.0,83,0.01,,---,0.02,0.00,VWS V14.01,2013-01-27 05:25:00,
2013-01-26 23:30:00,43.3,38.8,29.80,North,0,4.0,7.0,84,0.01,,---,0.02,0.00,VWS V14.01,2013-01-27 05:30:00,
2013-01-26 23:35:00,43.2,38.7,29.80,North,0,6.0,9.0,84,0.01,,---,0.02,0.00,VWS V14.01,2013-01-27 05:35:00,
2013-01-26 23:40:00,43.2,38.7,29.80,North,0,6.0,12.0,84,0.01,,---,0.02,0.00,VWS V14.01,2013-01-27 05:40:00,
2013-01-26 23:45:00,43.2,39.0,29.79,North,0,5.0,8.0,85,0.00,,---,0.02,0.00,VWS V14.01,2013-01-27 05:45:00,
2013-01-26 23:50:00,43.1,39.2,29.79,North,0,7.0,13.0,86,0.00,,---,0.02,0.00,VWS V14.01,2013-01-27 05:50:00,
2013-01-26 23:55:00,43.1,39.2,29.79,North,0,6.0,8.0,86,0.00,,---,0.02,0.00,VWS V14.01,2013-01-27 05:55:00,